ATLAS 5 CENTAUR R/B, 46919

Orbit data source: Space-Track

ATLAS 5 CENTAUR R/B, 46919 is space debris originally from a launch on Fri, 13 Nov 2020 UTC launched from the Air Force Eastern Test Range (AFETR). Debris objects in space refer to the collection of defunct objects orbiting the Earth. Examples of debris include non-operational satellites, rocket bodies, and fragments generated from explosions, collisions, or faulty payload assembly.

Loading next visibility...
ATLAS 5 CENTAUR R/B details
Identifier
46919, 2020-083B
Orbit
Active
Last TLE update10 hours ago
Origin
Flag of USULA (US)
ManufacturerULA Decatur
MissionSpacecraft
Bus & MotorCENTAUR SEC, RL10C-1
Mass~2,020 kg wet, 2,020 kg dry
Launch date (UTC)
2020-11-13 (4 years ago)
Launch vehicleUnknown
Launch site
Air Force Eastern Test Range (AFETR)
Object type
Payload
Rocket body
Debris
Shape & HBRCyl + 1 Nozzle, 11.7 m
Radar Cross Section32.260 m²

Expand to show TLE details & history

TLE from 10 hours ago
0 ATLAS 5 CENTAUR R/B
1 46919U 20083B   24361.45362664 -.00000033  00000-0  00000-0 0  9991
2 46919  58.8866  49.1692 0132958 199.1611 160.3937  3.86387494 24703
Epoch: 2024-12-26T10:53Z
Definitive object data (Epoch: 2024-12-26T10:53:13.341Z)
Latitude-0.00001°
Longitude150.44014°
Altitude10,992.506 km
Speed4.76 km/s
True Right ascension03h 16m 42s
True Declination0° 00' 00"
Sunlit
Object was in daylight at TLE epoch
Visualization TLE readout
Latitude-33.46855°
Longitude-6.17512°
Altitude10,573.733 km
Speed4.88 km/s
Apparent Right ascension15h 33m 59s
Apparent Declination-48° 45' 58"
Sunlit
Object is in daylight
Visualization observer readout
Local Sidereal Time20:16:26
Azimuth220.924° SW
Elevation-18.345°
Doppler factor1
Orbital elements
Apogee altitude11,004.534 km
Perigee altitude10,548.366 km
Semi-major axis17,154.587 km
Eccentricity0.0132958
Inclination58.8866°
RAAN49.1692°
Arg. of periapsis199.1611°
True anomaly160.89706°
Mean anomaly160.3937°
Eccentric anomaly160.64616°
Mean motion0.96599 °/min
BSTARUnknown
Orbital period372.67 mins
Loading maneuver chart data...
Loading historical data...
Loading historical data...
Loading historical data...
Loading historical data...
Loading historical data...
Loading historical data...
Loading historical data...
Other satellites on launch #83 in the year 2020 (2020-11-13 UTC)

ATLAS 5 CENTAUR R/B Visibility forecast

Observer location: undefined°, undefined

Span
Click to sort rows by Start time (UTC) header in descending order
Start Az.
Max El. time (UTC)
Max El. Az.
Max El.
End time (UTC)
End Az.
143 mins2024-12-27 05:16:32.461Z213.299° SW2024-12-27 06:26:32.461Z305.899° NW44.763°2024-12-27 07:39:32.461Z53.436° ENE
134 mins2024-12-27 12:54:32.461Z313.002° NW2024-12-27 14:03:32.461Z236.923° WSW44.951°2024-12-27 15:08:32.461Z157.512° S
|